Date String (YYYY-MM-DD hh:mm:ss) UTC,Instrument flags,absolute air pressure of the measurement (hPa),sample flow rate (lpm),inlet stack bypass flow (lpm),air temperature of the measurement (°C),ambient temperature measured by the external sensor (°C),aerosol sample conditioner tube jacket temperature (°C),OPC LED temperature (°C),internal box temperature (°C),relative humidity of the measurement (%),span deviation,mass concentration of particles derived from Lorenz-Mie calculation of OPC scattering (μg/m³),mass concentration of particles derived from Lorenz-Mie calculation of OPC scattering (μg/m³),mass concentration of particles derived from Lorenz-Mie calculation of OPC scattering (μg/m³)
DateTimeUTC,F1_M11,P_M11,Q1_M11,Q2_M11,T1_M11,T2_M11,T3_M11,T4_M11,T5_M11,U1_M11,ZSPAN_M11,X0_M11,X2_M11,X1_M11
2024-04-07 20:00:00,SystemResetWarning,0819.2,5.00,000.00,018.4,017.9,000.0,026.8,020.0,010.0,0000.0,0004.58,0001.39,0000.68
2024-04-07 20:01:00,SystemResetWarning,0819.0,5.00,000.00,018.4,017.9,000.0,026.8,020.1,010.1,0000.0,0004.63,0001.39,0000.68
2024-04-07 20:02:00,SystemResetWarning,0819.2,5.00,000.00,018.4,017.9,000.0,026.8,020.1,009.5,0000.0,0004.90,0001.41,0000.68
2024-04-07 20:03:00,SystemResetWarning,0819.2,5.00,000.00,018.4,017.9,000.0,026.8,020.1,009.4,0000.0,0004.93,0001.42,0000.68
2024-04-07 20:04:00,SystemResetWarning,0819.1,5.00,000.00,018.4,017.9,000.0,026.8,020.1,009.7,0000.0,0004.96,0001.44,0000.68
2024-04-07 20:05:00,SystemResetWarning,0819.0,5.00,000.00,018.4,017.9,000.0,026.8,020.1,009.4,0000.0,0005.54,0001.42,0000.69
2024-04-07 20:06:00,SystemResetWarning,0819.3,5.00,000.00,018.4,017.9,000.0,026.8,020.1,009.3,0000.0,0005.87,0001.39,0000.69
2024-04-07 20:07:00,SystemResetWarning,0819.3,5.00,000.00,018.4,017.9,000.0,026.8,020.1,009.3,0000.0,0005.63,0001.34,0000.69
2024-04-07 20:08:00,SystemResetWarning,0819.2,5.00,000.00,018.4,017.9,000.0,026.8,020.1,009.6,0000.0,0005.49,0001.29,0000.69
2024-04-07 20:09:00,SystemResetWarning,0819.2,5.01,000.00,018.4,017.9,000.0,026.8,020.1,009.9,0000.0,0005.43,0001.26,0000.68
2024-04-07 20:10:00,SystemResetWarning,0819.1,5.01,000.00,018.4,017.9,000.0,026.8,020.1,009.8,0000.0,0005.56,0001.27,0000.67
2024-04-07 20:11:00,SystemResetWarning,0819.2,5.01,000.00,018.4,017.9,000.0,026.8,020.1,009.8,0000.0,0004.26,0001.29,0000.68
2024-04-07 20:12:00,SystemResetWarning,0819.3,5.00,000.00,018.4,017.9,000.0,026.8,020.1,009.7,0000.0,0004.05,0001.34,0000.69
2024-04-07 20:13:00,SystemResetWarning,0819.3,4.99,000.00,018.4,017.9,000.0,026.8,020.1,009.7,0000.0,0003.69,0001.27,0000.69
2024-04-07 20:14:00,SystemResetWarning,0819.1,4.99,000.00,018.5,018.0,000.0,026.8,020.1,009.9,0000.0,0003.59,0001.24,0000.69
2024-04-07 20:15:00,SystemResetWarning,0819.0,5.00,000.00,018.5,018.0,000.0,026.8,020.1,009.3,0000.0,0005.52,0001.23,0000.69
2024-04-07 20:16:00,SystemResetWarning,0818.9,5.00,000.00,018.5,018.0,000.0,026.8,020.1,009.0,0000.0,0005.49,0001.18,0000.69
2024-04-07 20:17:00,SystemResetWarning,0819.1,5.01,000.00,018.5,018.0,000.0,026.8,020.1,009.2,0000.0,0004.86,0001.23,0000.69
2024-04-07 20:18:00,SystemResetWarning,0818.9,5.01,000.00,018.5,018.0,000.0,026.8,020.1,009.1,0000.0,0005.05,0001.32,0000.71
2024-04-07 20:19:00,SystemResetWarning,0818.9,5.00,000.00,018.5,018.0,000.0,026.8,020.1,009.2,0000.0,0005.00,0001.34,0000.71
2024-04-07 20:20:00,SystemResetWarning,0819.0,4.98,000.00,018.5,018.0,000.0,026.8,020.1,009.2,0000.0,0005.11,0001.36,0000.72
2024-04-07 20:21:00,SystemResetWarning,0819.0,4.99,000.00,018.5,018.0,000.0,026.8,020.1,009.3,0000.0,0005.17,0001.37,0000.72
2024-04-07 20:22:00,SystemResetWarning,0819.0,5.00,000.00,018.5,018.0,000.0,026.8,020.1,009.6,0000.0,0006.07,0001.41,0000.72
2024-04-07 20:23:00,SystemResetWarning,0819.0,5.02,000.00,018.5,018.0,000.0,026.8,020.1,009.6,0000.0,0006.12,0001.40,0000.72
2024-04-07 20:24:00,SystemResetWarning,0818.8,5.00,000.00,018.5,018.0,000.0,026.8,020.1,009.6,0000.0,0007.31,0001.39,0000.72
2024-04-07 20:25:00,SystemResetWarning,0818.7,4.99,000.00,018.5,018.0,000.0,026.8,020.1,009.3,0000.0,0007.42,0001.45,0000.73
2024-04-07 20:26:00,SystemResetWarning,0818.6,5.00,000.00,018.5,018.0,000.0,026.8,020.1,009.6,0000.0,0006.22,0001.46,0000.72
2024-04-07 20:27:00,SystemResetWarning,0818.6,5.00,000.00,018.5,018.0,000.0,026.9,020.1,009.6,0000.0,0005.44,0001.51,0000.72
2024-04-07 20:28:00,SystemResetWarning,0818.7,5.01,000.00,018.5,018.0,000.0,026.9,020.1,009.4,0000.0,0005.88,0001.52,0000.71
2024-04-07 20:29:00,SystemResetWarning,0819.0,5.00,000.00,018.5,018.0,000.0,026.8,020.1,009.5,0000.0,0006.35,0001.54,0000.70
2024-04-07 20:30:00,SystemResetWarning,0818.9,5.00,000.00,018.5,018.0,000.0,026.8,020.1,009.6,0000.0,0006.42,0001.56,0000.70
2024-04-07 20:31:00,SystemResetWarning,0818.8,4.99,000.00,018.5,018.0,000.0,026.9,020.1,009.6,0000.0,0006.50,0001.60,0000.70
2024-04-07 20:32:00,SystemResetWarning,0818.8,4.99,000.00,018.5,018.0,000.0,026.9,020.2,009.5,0000.0,0006.80,0001.63,0000.71
2024-04-07 20:33:00,SystemResetWarning,0819.1,5.01,000.00,018.5,018.0,000.0,026.9,020.2,009.4,0000.0,0005.83,0001.60,0000.72
2024-04-07 20:34:00,SystemResetWarning,0818.8,5.01,000.00,018.5,018.0,000.0,026.9,020.2,009.2,0000.0,0006.01,0001.61,0000.73
2024-04-07 20:35:00,SystemResetWarning,0818.8,5.00,000.00,018.5,018.1,000.0,026.9,020.2,009.4,0000.0,0005.31,0001.63,0000.73
2024-04-07 20:36:00,SystemResetWarning,0818.9,4.99,000.00,018.6,018.1,000.0,026.9,020.2,009.3,0000.0,0007.30,0001.64,0000.73
2024-04-07 20:37:00,SystemResetWarning,0819.1,5.01,000.00,018.6,018.1,000.0,026.9,020.2,009.3,0000.0,0007.25,0001.62,0000.73
2024-04-07 20:38:00,SystemResetWarning,0819.0,5.01,000.00,018.6,018.1,000.0,026.9,020.2,009.5,0000.0,0007.07,0001.57,0000.73
2024-04-07 20:39:00,SystemResetWarning,0819.0,5.00,000.00,018.6,018.1,000.0,026.9,020.2,009.6,0000.0,0007.19,0001.56,0000.73
2024-04-07 20:40:00,SystemResetWarning,0819.1,4.99,000.00,018.6,018.1,000.0,026.9,020.2,009.8,0000.0,0006.57,0001.49,0000.73
2024-04-07 20:41:00,SystemResetWarning,0819.0,5.00,000.00,018.6,018.1,000.0,026.9,020.3,010.0,0000.0,0006.37,0001.42,0000.73
2024-04-07 20:42:00,SystemResetWarning,0819.0,5.02,000.00,018.6,018.2,000.0,026.9,020.3,009.9,0000.0,0006.18,0001.35,0000.72
2024-04-07 20:43:00,SystemResetWarning,0818.9,4.99,000.00,018.6,018.2,000.0,026.9,020.3,009.8,0000.0,0005.91,0001.32,0000.71
2024-04-07 20:44:00,SystemResetWarning,0819.0,4.99,000.00,018.6,018.2,000.0,027.0,020.3,009.7,0000.0,0005.88,0001.30,0000.69
2024-04-07 20:45:00,SystemResetWarning,0819.1,5.00,000.00,018.6,018.2,000.0,027.0,020.3,009.5,0000.0,0005.69,0001.26,0000.67
2024-04-07 20:46:00,SystemResetWarning,0819.3,5.01,000.00,018.7,018.2,000.0,027.0,020.3,009.5,0000.0,0005.37,0001.23,0000.66
2024-04-07 20:47:00,SystemResetWarning,0819.2,5.00,000.00,018.7,018.2,000.0,027.0,020.3,009.4,0000.0,0003.75,0001.22,0000.66
2024-04-07 20:48:00,SystemResetWarning,0819.1,5.00,000.00,018.7,018.2,000.0,027.0,020.3,009.5,0000.0,0004.36,0001.21,0000.66
2024-04-07 20:49:00,SystemResetWarning,0819.2,5.01,000.00,018.7,018.2,000.0,027.0,020.3,009.6,0000.0,0004.43,0001.24,0000.68
2024-04-07 20:50:00,SystemResetWarning,0819.3,5.01,000.00,018.7,018.2,000.0,027.0,020.4,009.4,0000.0,0004.15,0001.23,0000.67
2024-04-07 20:51:00,SystemResetWarning,0819.3,5.00,000.00,018.7,018.2,000.0,027.0,020.4,009.2,0000.0,0004.60,0001.23,0000.67
2024-04-07 20:52:00,SystemResetWarning,0819.2,4.99,000.00,018.7,018.3,000.0,027.0,020.4,009.0,0000.0,0004.73,0001.25,0000.67
2024-04-07 20:53:00,SystemResetWarning,0819.2,4.99,000.00,018.7,018.3,000.0,027.0,020.4,009.2,0000.0,0004.88,0001.31,0000.68
2024-04-07 20:54:00,SystemResetWarning,0819.2,4.99,000.00,018.7,018.3,000.0,027.0,020.4,009.0,0000.0,0004.94,0001.34,0000.69
2024-04-07 20:55:00,SystemResetWarning,0819.1,5.00,000.00,018.8,018.3,000.0,027.0,020.4,008.9,0000.0,0005.03,0001.41,0000.71
2024-04-07 20:56:00,SystemResetWarning,0819.1,5.01,000.00,018.8,018.3,000.0,027.1,020.4,009.0,0000.0,0005.07,0001.42,0000.71
2024-04-07 20:57:00,SystemResetWarning,0819.3,5.01,000.00,018.8,018.3,000.0,027.1,020.4,008.9,0000.0,0004.84,0001.43,0000.72
2024-04-07 20:58:00,SystemResetWarning,0819.0,4.99,000.00,018.8,018.3,000.0,027.1,020.5,009.1,0000.0,0004.31,0001.39,0000.72
2024-04-07 20:59:00,SystemResetWarning,0819.0,4.99,000.00,018.8,018.3,000.0,027.1,020.5,009.1,0000.0,0003.56,0001.41,0000.72
